Weather History for Cook, MN

Change the Weather History Date:

Wednesday, March 7, 2012

  Actual Average Record
Temperature  
Mean Temperature 28 °F -  
Max Temperature 33 °F 27 °F 35 °F (2006)
Min Temperature 24 °F 4 °F -27 °F (2008)
Degree Days  
Heating Degree Days 36    
Moisture  
Dew Point 26 °F    
Average Humidity 86    
Maximum Humidity 100    
Minimum Humidity 74    
Precipitation  
Precipitation 0.00 in - - ()
Sea Level Pressure  
Sea Level Pressure 29.60 in    
Wind  
Wind Speed 3 mph (NW)    
Max Wind Speed 13 mph    
Max Gust Speed 20 mph    
Visibility 9 miles    
Events Snow    
Averages and records for this station are not official NWS values.
T = Trace of Precipitation, MM = Missing Value Source: NWS Daily Summary

Daily Weather History Graph

Daily Weather History Graph

Search for Another Location

Airport:

Trip Planner

Search our weather history database for the weather conditions in past years. The results will help you decide how hot, cold, wet, or windy it might be!

Date:

Astronomy

Mar. 07, 2012 Rise Set
Actual Time 6:38 AM CST 6:05 PM CST
Civil Twilight 6:07 AM CST 6:36 PM CST
Nautical Twilight 5:32 AM CST 7:11 PM CST
Astronomical Twilight 4:56 AM CST 7:48 PM CST
Moon 5:44 PM CST (3/7) 5:49 AM CST (3/7)
Length of Visible Light 12h 28m
Length of Day
11h 26m
Waxing Gibbous, 99% of the Moon is Illuminated
Mar 7
Waxing Gibbous
Mar 8
Full
Mar 14
Last Quarter
Mar 22
New
Mar 30
First Quarter

Hourly Weather History & Observations

Time (CST) Temp. Windchill Dew Point Humidity Pressure Visibility Wind Dir Wind Speed Gust Speed Precip Events Conditions
12:17 AM 30.2 °F - 26.6 °F 86% 29.55 in 10.0 mi Calm Calm - N/A   Clear
12:56 AM 30.2 °F - 26.6 °F 86% 29.57 in 10.0 mi Calm Calm - N/A   Clear
1:17 AM 30.2 °F - 26.6 °F 86% 29.55 in 10.0 mi Calm Calm - N/A   Clear
1:57 AM 28.4 °F - 26.6 °F 93% 29.55 in 10.0 mi Calm Calm - N/A   Clear
2:17 AM 28.4 °F - 26.6 °F 93% 29.56 in 10.0 mi Calm Calm - N/A   Scattered Clouds
2:36 AM 28.4 °F - 26.6 °F 93% 29.55 in 10.0 mi Calm Calm - N/A   Scattered Clouds
2:57 AM 28.4 °F - 26.6 °F 93% 29.56 in 10.0 mi Calm Calm - N/A   Scattered Clouds
3:17 AM 28.4 °F - 26.6 °F 93% 29.54 in 10.0 mi Calm Calm - N/A   Clear
3:57 AM 28.4 °F - 26.6 °F 93% 29.51 in 10.0 mi Calm Calm - N/A   Clear
4:16 AM 26.6 °F - 24.8 °F 93% 29.52 in 10.0 mi Calm Calm - N/A   Clear
4:36 AM 26.6 °F - 24.8 °F 93% 29.53 in 10.0 mi Calm Calm - N/A   Clear
4:57 AM 26.6 °F - 24.8 °F 93% 29.54 in 10.0 mi Calm Calm - N/A   Clear
5:17 AM 28.4 °F - 26.6 °F 93% 29.55 in 10.0 mi Calm Calm - N/A   Clear
5:36 AM 24.8 °F - 23.0 °F 93% 29.54 in 10.0 mi Calm Calm - N/A   Clear
5:57 AM 24.8 °F - 24.8 °F 100% 29.55 in 10.0 mi Calm Calm - N/A   Clear
6:16 AM 24.8 °F - 24.8 °F 100% 29.55 in 10.0 mi Calm Calm - N/A   Clear
6:37 AM 24.8 °F - 23.0 °F 93% 29.56 in 10.0 mi Calm Calm - N/A   Clear
6:57 AM 26.6 °F - 26.6 °F 100% 29.56 in 10.0 mi Calm Calm - N/A   Clear
7:17 AM 28.4 °F - 26.6 °F 93% 29.56 in 10.0 mi Calm Calm - N/A   Clear
7:36 AM 28.4 °F - 26.6 °F 93% 29.57 in 10.0 mi Calm Calm - N/A   Clear
7:56 AM 28.4 °F 24.6 °F 26.6 °F 93% 29.56 in 10.0 mi West 3.5 mph - N/A   Clear
8:16 AM 30.2 °F 25.4 °F 26.6 °F 86% 29.57 in 10.0 mi West 4.6 mph - N/A   Clear
8:36 AM 32.0 °F 27.5 °F 28.4 °F 87% 29.56 in 10.0 mi NW 4.6 mph - N/A   Clear
8:57 AM 33.8 °F 27.7 °F 28.4 °F 81% 29.56 in 10.0 mi WNW 6.9 mph - N/A   Clear
9:16 AM 33.8 °F 27.7 °F 28.4 °F 81% 29.56 in 10.0 mi NW 6.9 mph - N/A   Clear
9:37 AM 33.8 °F 28.6 °F 28.4 °F 81% 29.57 in 10.0 mi WNW 5.8 mph - N/A   Mostly Cloudy
9:57 AM 33.8 °F 27.0 °F 30.2 °F 87% 29.58 in 10.0 mi WNW 8.1 mph - N/A   Overcast
10:16 AM 33.8 °F 28.6 °F 30.2 °F 87% 29.59 in 10.0 mi WNW 5.8 mph - N/A   Overcast
10:37 AM 33.8 °F 27.0 °F 30.2 °F 87% 29.59 in 10.0 mi WNW 8.1 mph - N/A   Overcast
10:56 AM 33.8 °F 27.7 °F 30.2 °F 87% 29.60 in 10.0 mi WNW 6.9 mph - N/A   Overcast
11:17 AM 33.8 °F 27.7 °F 28.4 °F 81% 29.60 in 10.0 mi NW 6.9 mph - N/A   Overcast
11:36 AM 33.8 °F 28.6 °F 28.4 °F 81% 29.60 in 5.0 mi WNW 5.8 mph 16.1 mph N/A Snow Light Snow
11:57 AM 33.8 °F 27.7 °F 30.2 °F 87% 29.60 in 7.0 mi NW 6.9 mph 17.3 mph N/A Snow Light Snow
12:17 PM 33.8 °F 25.3 °F 28.4 °F 81% 29.60 in 10.0 mi NW 11.5 mph 18.4 mph N/A   Overcast
12:36 PM 33.8 °F 26.4 °F 28.4 °F 81% 29.60 in 10.0 mi NW 9.2 mph 18.4 mph N/A   Overcast
12:57 PM 33.8 °F 26.4 °F 26.6 °F 75% 29.60 in 10.0 mi NW 9.2 mph 17.3 mph N/A   Overcast
1:16 PM 33.8 °F 27.0 °F 26.6 °F 75% 29.62 in 7.0 mi NW 8.1 mph 17.3 mph N/A Snow Light Snow
1:37 PM 32.0 °F 22.5 °F 28.4 °F 87% 29.63 in 2.0 mi WNW 12.7 mph 17.3 mph N/A Snow Light Snow
1:57 PM 30.2 °F 21.3 °F 28.4 °F 93% 29.63 in 1.0 mi NW 10.4 mph 19.6 mph N/A Snow Light Snow
2:16 PM 30.2 °F 20.8 °F 26.6 °F 86% 29.63 in 1.5 mi NW 11.5 mph - N/A Snow Light Snow
2:37 PM 30.2 °F 20.8 °F 26.6 °F 86% 29.64 in 10.0 mi WNW 11.5 mph 18.4 mph N/A   Overcast
2:57 PM 30.2 °F 21.9 °F 24.8 °F 80% 29.65 in 10.0 mi NW 9.2 mph 18.4 mph N/A   Overcast
3:16 PM 28.4 °F 19.7 °F 24.8 °F 86% 29.66 in 1.5 mi NW 9.2 mph - N/A Snow Light Snow
3:37 PM 28.4 °F 18.5 °F 24.8 °F 86% 29.67 in 4.0 mi NW 11.5 mph 17.3 mph N/A Snow Light Snow
3:57 PM 28.4 °F 19.1 °F 23.0 °F 80% 29.67 in 10.0 mi NW 10.4 mph - N/A   Overcast
4:16 PM 28.4 °F 19.7 °F 21.2 °F 74% 29.67 in 10.0 mi NNW 9.2 mph 17.3 mph N/A   Overcast
4:37 PM 28.4 °F 20.4 °F 21.2 °F 74% 29.68 in 10.0 mi NW 8.1 mph - N/A   Overcast
4:56 PM 28.4 °F 21.2 °F 21.2 °F 74% 29.69 in 10.0 mi NW 6.9 mph - N/A   Overcast
5:16 PM 28.4 °F 21.2 °F 21.2 °F 74% 29.70 in 10.0 mi NW 6.9 mph - N/A   Overcast
5:36 PM 28.4 °F 22.2 °F 21.2 °F 74% 29.71 in 10.0 mi WNW 5.8 mph - N/A   Overcast
5:56 PM 26.6 °F 17.5 °F 19.4 °F 74% 29.74 in 10.0 mi WNW 9.2 mph 17.3 mph N/A   Overcast
6:17 PM 26.6 °F 16.2 °F 19.4 °F 74% 29.76 in 10.0 mi NW 11.5 mph 18.4 mph N/A   Mostly Cloudy
6:36 PM 26.6 °F 18.2 °F 17.6 °F 69% 29.75 in 10.0 mi NNW 8.1 mph - N/A   Mostly Cloudy
6:56 PM 26.6 °F 20.0 °F 17.6 °F 69% 29.77 in 10.0 mi NNW 5.8 mph - N/A   Overcast
7:17 PM 26.6 °F 22.6 °F 17.6 °F 69% 29.79 in 10.0 mi NW 3.5 mph - N/A   Overcast
7:36 PM 26.6 °F 20.0 °F 17.6 °F 69% 29.80 in 10.0 mi NW 5.8 mph - N/A   Overcast
7:56 PM 26.6 °F 20.0 °F 17.6 °F 69% 29.81 in 10.0 mi NW 5.8 mph - N/A   Overcast
8:17 PM 26.6 °F 17.5 °F 17.6 °F 69% 29.82 in 10.0 mi WNW 9.2 mph - N/A   Overcast
8:36 PM 24.8 °F 19.1 °F 17.6 °F 74% 29.83 in 10.0 mi WNW 4.6 mph - N/A   Overcast
8:56 PM 24.8 °F 17.9 °F 17.6 °F 74% 29.84 in 10.0 mi WNW 5.8 mph - N/A   Scattered Clouds
9:17 PM 23.0 °F 15.8 °F 15.8 °F 74% 29.86 in 10.0 mi West 5.8 mph - N/A   Clear
9:36 PM 21.2 °F 13.6 °F 15.8 °F 80% 29.86 in 10.0 mi West 5.8 mph - N/A   Clear
9:56 PM 21.2 °F 13.6 °F 15.8 °F 80% 29.87 in 10.0 mi West 5.8 mph - N/A   Clear
10:16 PM 21.2 °F 13.6 °F 15.8 °F 80% 29.87 in 10.0 mi West 5.8 mph - N/A   Clear
10:36 PM 19.4 °F 12.8 °F 14.0 °F 80% 29.87 in 10.0 mi West 4.6 mph - N/A   Clear
10:57 PM 19.4 °F 12.8 °F 14.0 °F 80% 29.87 in 10.0 mi West 4.6 mph - N/A   Clear
11:36 PM 19.4 °F 10.4 °F 14.0 °F 80% 29.88 in 10.0 mi West 6.9 mph - N/A   Clear
11:52 PM 19.4 °F 9.5 °F 12.2 °F 74% 29.88 in 10.0 mi West 8.1 mph - N/A   Clear